Wind_Speed
11 7 1 3 8 9 8 9 4 3 3 3 5 7 5 6 3 3 3 4 10 8 18 19 18 22 22 22 19 15 13 11 11 9 8 8 9 8 9 7 6 8 7
12 9 4 2 6 10 10 10 6 1 1 2 3 5 4 5 2 2 2 5 10 12 20 20 20 22 22 21 17 14 12 12 11 10 9 8 8 10 10 5 5 8 7
18 14 6 4 6 9 10 10 8 2 2 2 2 3 2 4 2 2 6 5 11 15 13 18 22 24 22 20 17 15 15 13 12 10 9 8 10 11 8 4 7 7 6
19 15 11 7 6 10 10 8 8 3 3 2 3 3 2 4 3 4 10 9 14 12 15 16 19 22 21 19 16 16 16 14 12 10 9 9 10 10 6 3 7 7 6
25 20 15 11 8 9 10 8 8 5 5 4 4 4 4 5 6 8 14 14 14 13 19 16 19 19 19 18 17 17 16 15 12 9 8 10 10 8 5 3 7 6 5
21 22 18 13 11 9 10 8 8 6 7 7 6 5 5 7 9 9 13 17 16 16 12 19 19 18 19 19 19 17 15 14 12 9 10 10 9 7 4 5 7 6 4
25 25 19 16 14 12 9 10 9 9 8 8 8 6 5 9 9 12 18 21 20 17 17 16 16 18 19 19 18 17 16 14 10 11 11 11 8 7 4 8 7 5 2
27 21 23 20 17 15 11 11 12 13 12 10 9 7 7 9 10 15 22 24 23 21 20 18 16 17 19 17 17 18 17 13 11 12 12 10 8 7 5 8 6 4 0
32 30 22 21 18 16 14 12 13 12 14 14 10 9 7 7 8 9 8 29 26 25 23 21 19 17 16 17 18 20 18 14 13 14 13 11 9 6 8 8 6 3 1
27 29 28 24 22 20 18 15 13 13 11 15 12 10 8 11 11 13 31 28 27 27 26 23 20 18 16 18 19 19 18 16 13 14 13 11 9 7 9 8 5 2 3
33 30 27 26 24 22 21 19 16 14 12 14 14 10 10 10 13 23 18 30 28 27 26 25 22 20 18 18 19 20 19 17 16 16 14 12 9 9 10 8 6 4 3
38 25 22 28 24 25 23 22 20 19 16 14 15 12 10 11 12 11 17 30 26 27 25 25 23 23 22 22 20 20 20 18 17 17 15 14 10 11 11 9 6 4 2
40 37 31 29 24 29 30 26 25 23 20 18 17 15 12 12 20 21 12 35 24 27 26 24 23 23 24 24 22 21 21 20 18 19 17 15 12 13 11 9 6 4 3
39 36 33 33 35 32 29 30 28 28 24 22 19 17 15 14 20 19 17 28 26 26 27 27 27 27 28 25 24 22 22 22 20 21 19 16 14 14 12 10 7 5 4
44 42 40 38 37 38 40 34 33 32 30 25 23 19 18 15 21 23 20 25 35 26 28 28 28 30 30 28 26 25 24 24 22 22 21 18 16 16 14 11 8 6 5
52 48 45 40 37 36 37 38 34 36 35 31 26 22 21 18 19 22 16 24 29 29 25 28 30 31 32 31 30 30 28 27 24 25 22 19 18 18 16 12 10 8 6
51 51 50 48 45 41 33 36 37 38 37 36 31 26 23 21 23 20 17 26 35 32 29 30 31 32 30 29 28 32 30 29 26 28 24 22 21 20 18 14 11 9 7
54 52 51 49 49 46 42 34 34 37 37 38 35 31 25 24 22 25 23 23 36 41 33 31 32 33 32 30 30 34 33 30 30 30 26 24 23 22 18 15 12 11 10
57 56 54 53 50 48 47 43 40 36 37 37 37 33 30 27 25 26 30 33 24 36 39 35 31 30 37 33 32 35 33 31 32 30 28 26 25 23 20 17 15 13 12
59 58 57 57 54 51 47 46 46 42 39 38 39 37 34 31 28 30 35 37 25 32 41 39 38 35 36 42 36 38 36 34 34 32 30 27 27 25 21 19 17 15 14
60 59 59 59 59 56 52 47 48 47 44 39 41 39 37 36 33 31 34 39 27 38 28 36 37 33 35 45 39 40 38 36 35 33 31 29 29 26 24 22 20 18 17
64 61 59 60 63 59 56 52 49 47 45 43 43 41 40 40 38 33 31 35 31 35 37 35 40 44 38 42 39 40 39 36 35 34 34 32 31 29 27 25 24 21 20
65 63 62 58 64 64 60 56 52 46 44 48 48 45 42 41 41 39 33 37 36 34 32 33 44 45 45 46 46 41 39 36 39 37 36 34 34 32 29 27 26 24 23
69 65 64 63 59 65 65 60 56 52 49 48 50 47 46 44 42 43 36 34 33 32 37 29 36 46 44 43 47 44 43 46 44 40 38 37 36 34 32 31 29 28 27
71 69 65 64 63 62 65 65 61 56 54 49 49 49 49 45 46 45 39 36 36 35 25 26 34 44 43 41 41 39 42 50 44 42 40 39 38 38 36 35 33 31 31
73 71 67 65 65 62 65 65 65 61 57 55 50 51 52 48 48 45 49 34 36 31 33 25 20 44 47 48 50 46 47 50 45 45 44 43 42 40 40 37 35 34 33
Wind_Direction
241 259 275 5 2 353 351 331 322 1 357 339 3 5 351 355 343 349 60 82 82 54 144 146 135 149 156 146 150 160 171 176 176 181 182 177 177 163 160 162 142 130 127
256 254 239 328 335 336 334 322 322 307 26 306 340 358 349 352 319 331 150 105 89 107 128 139 140 137 144 148 151 161 171 181 180 177 176 181 174 163 165 149 130 139 122
263 264 258 284 316 317 320 318 312 284 189 243 298 325 341 325 267 207 185 146 141 137 139 142 145 150 148 151 156 169 175 181 175 175 177 177 168 167 160 133 144 135 119
247 259 245 250 279 282 295 302 296 248 205 211 249 273 268 282 245 191 197 176 151 162 161 166 160 155 153 157 166 178 182 181 174 173 177 169 168 168 151 127 150 135 122
244 241 233 236 250 268 272 279 288 254 224 211 229 236 249 248 234 207 205 185 174 159 173 168 168 165 166 163 179 184 191 195 190 177 180 174 169 171 161 155 157 143 131
257 231 236 237 240 250 270 263 269 258 229 230 231 237 241 236 231 225 219 202 186 169 157 180 167 179 174 173 183 189 196 197 180 180 186 179 177 178 185 177 157 148 139
257 247 235 240 237 236 252 264 261 255 230 232 234 240 242 242 237 227 217 206 193 186 172 170 168 168 179 185 191 191 194 191 188 184 190 185 184 192 203 173 163 162 151
247 252 245 247 248 243 242 257 265 253 247 237 237 236 240 253 276 261 221 201 192 191 182 179 181 187 188 190 198 195 188 190 182 192 194 194 194 201 198 170 172 179 173
231 230 245 240 243 245 245 248 255 250 250 246 242 239 236 247 263 257 272 200 195 192 190 189 191 187 184 187 190 189 186 191 189 194 200 197 200 202 181 177 187 199 320
241 235 236 220 230 232 239 243 243 237 249 247 246 241 237 230 251 277 261 198 198 192 192 188 192 187 184 188 189 193 190 192 190 196 202 204 202 198 183 190 202 239 303
247 251 239 224 229 229 227 237 231 229 240 247 245 240 234 224 230 253 245 210 193 198 197 192 193 188 189 191 197 197 197 200 202 199 203 208 203 198 192 203 213 251 289
251 261 271 231 238 253 233 230 235 234 234 241 244 243 238 230 212 250 260 206 193 204 205 202 199 191 192 195 199 199 197 196 199 200 201 208 204 200 199 214 231 266 283
260 263 265 256 260 259 258 240 236 236 238 234 237 236 239 237 218 240 213 191 194 204 208 204 204 199 196 198 201 208 205 202 203 205 202 206 203 202 207 223 245 260 280
246 249 248 253 254 256 252 258 240 240 237 236 233 234 236 231 220 245 234 203 196 199 208 215 210 213 206 208 214 215 215 210 207 207 203 204 199 204 214 230 240 243 261
245 243 243 246 250 252 257 256 252 244 240 235 233 228 230 233 224 211 233 242 204 205 211 214 216 209 210 212 213 218 214 211 209 210 205 204 201 207 217 230 230 239 248
247 248 247 251 250 254 257 254 250 248 239 237 234 229 222 229 226 235 235 203 199 204 210 220 219 220 221 219 218 219 214 212 208 204 204 206 205 213 221 228 229 234 228
249 248 249 247 249 252 254 253 251 245 245 234 235 232 223 222 217 231 241 233 210 211 212 221 221 216 215 217 212 211 213 209 205 203 203 207 209 215 224 225 232 228 218
246 247 248 248 247 248 246 249 247 242 242 240 236 232 229 221 221 226 233 237 234 216 216 221 219 222 218 218 211 209 206 210 202 203 204 209 210 217 224 225 230 228 218
240 243 246 248 246 246 245 242 243 243 237 238 239 236 231 226 218 216 227 241 242 216 218 224 213 210 220 212 208 208 209 209 201 202 207 209 211 218 224 226 231 229 227
242 240 242 246 246 246 245 240 239 239 237 232 237 237 236 232 221 221 226 235 240 232 223 223 222 230 229 216 213 208 209 208 204 203 209 211 212 218 222 226 230 230 231
244 240 239 242 244 243 244 241 237 235 238 233 233 237 235 236 229 229 229 238 242 228 225 228 229 230 231 214 215 209 209 210 208 205 209 212 214 219 222 224 228 229 232
246 241 238 238 243 244 243 240 238 233 234 233 234 233 235 238 234 230 231 236 230 222 238 244 226 230 216 215 213 212 210 210 210 209 210 213 215 220 223 224 228 228 231
241 244 239 234 238 241 241 242 239 233 227 230 230 231 233 235 237 236 230 241 233 241 235 227 222 223 219 221 218 213 214 211 212 211 212 214 215 219 225 226 229 231 234
239 239 240 236 231 238 239 240 238 234 227 231 230 228 230 229 235 239 239 233 236 233 237 244 226 224 224 222 229 223 219 213 209 213 214 216 218 221 224 227 229 232 235
238 238 237 237 233 231 235 237 236 233 230 230 231 228 232 227 229 235 245 236 237 244 245 236 239 221 218 217 210 210 214 216 211 213 217 218 219 222 224 228 229 235 238
235 235 235 234 234 227 230 233 235 233 231 230 229 228 229 229 227 231 234 230 233 239 238 211 226 214 214 217 214 217 214 214 211 215 217 219 222 223 225 228 232 236 241
Height
5842 5843 5842 5841 5840 5841 5840 5841 5841 5840 5840 5840 5839 5838 5839 5840 5840 5840 5842 5843 5841 5842 5842 5847 5849 5852 5857 5861 5866 5870 5873 5876 5877 5879 5880 5882 5883 5883 5884 5886 5885 5885 5886
5839 5840 5840 5840 5840 5839 5839 5839 5838 5838 5838 5838 5838 5838 5838 5840 5839 5840 5843 5844 5843 5845 5846 5848 5851 5853 5858 5862 5866 5871 5875 5876 5878 5879 5881 5882 5883 5884 5885 5886 5886 5886 5886
5836 5837 5837 5838 5838 5838 5838 5837 5836 5836 5836 5836 5836 5837 5837 5839 5839 5840 5842 5845 5845 5847 5849 5851 5853 5856 5860 5863 5867 5871 5874 5877 5878 5880 5881 5882 5883 5885 5886 5886 5886 5886 5887
5832 5833 5833 5834 5836 5837 5837 5836 5836 5835 5834 5834 5834 5835 5836 5837 5838 5839 5842 5845 5845 5847 5851 5854 5855 5856 5860 5863 5867 5872 5875 5877 5879 5881 5882 5883 5884 5885 5886 5886 5886 5887 5887
5827 5828 5830 5831 5833 5834 5835 5834 5834 5833 5833 5832 5833 5834 5834 5836 5837 5838 5840 5843 5845 5847 5850 5854 5855 5857 5861 5864 5868 5872 5875 5877 5880 5881 5883 5883 5884 5885 5886 5886 5886 5887 5887
5824 5823 5826 5829 5830 5831 5832 5832 5831 5831 5832 5831 5831 5831 5833 5834 5835 5836 5840 5842 5844 5847 5849 5853 5855 5857 5861 5864 5868 5871 5875 5877 5879 5881 5883 5884 5884 5885 5886 5886 5887 5887 5887
5821 5823 5823 5825 5826 5828 5830 5829 5830 5830 5830 5829 5829 5829 5830 5831 5832 5834 5837 5839 5843 5846 5848 5851 5854 5857 5860 5864 5867 5871 5874 5877 5879 5881 5883 5884 5884 5886 5886 5886 5887 5887 5888
5815 5817 5820 5822 5824 5825 5827 5828 5828 5828 5828 5827 5826 5827 5827 5828 5827 5829 5831 5835 5841 5844 5846 5849 5853 5856 5859 5863 5867 5870 5873 5876 5879 5881 5883 5884 5885 5885 5886 5887 5888 5888 5888
5801 5808 5814 5818 5820 5822 5823 5824 5825 5825 5825 5824 5824 5823 5824 5825 5827 5827 5829 5832 5839 5842 5844 5847 5852 5855 5859 5862 5865 5869 5872 5875 5877 5880 5882 5883 5884 5885 5886 5887 5887 5888 5888
5798 5803 5806 5809 5812 5816 5818 5820 5821 5821 5821 5821 5821 5821 5822 5823 5824 5825 5826 5828 5837 5840 5843 5846 5850 5854 5858 5861 5864 5868 5871 5874 5876 5879 5881 5883 5884 5885 5886 5887 5887 5888 5888
5794 5801 5806 5806 5807 5808 5812 5815 5817 5817 5817 5818 5816 5818 5819 5820 5822 5824 5826 5828 5835 5838 5841 5844 5847 5852 5856 5860 5863 5866 5869 5871 5875 5878 5880 5882 5883 5884 5886 5886 5887 5888 5888
5791 5796 5803 5806 5807 5807 5808 5808 5812 5814 5812 5813 5814 5814 5815 5816 5819 5821 5822 5825 5831 5836 5839 5842 5846 5849 5853 5857 5860 5864 5866 5870 5873 5876 5878 5881 5882 5884 5885 5886 5887 5887 5888
5787 5792 5797 5799 5802 5804 5805 5807 5808 5809 5809 5809 5809 5811 5812 5813 5815 5816 5817 5822 5829 5833 5837 5840 5844 5847 5850 5854 5858 5862 5865 5868 5871 5874 5877 5880 5881 5883 5884 5885 5886 5887 5887
5780 5784 5789 5793 5796 5797 5799 5802 5805 5806 5806 5807 5804 5806 5808 5810 5812 5809 5816 5823 5826 5830 5834 5838 5841 5844 5848 5852 5856 5860 5863 5866 5869 5872 5875 5877 5879 5881 5883 5884 5885 5886 5886
5771 5777 5780 5783 5786 5790 5792 5794 5797 5800 5802 5802 5802 5802 5804 5806 5808 5808 5811 5816 5822 5827 5829 5833 5836 5840 5844 5848 5853 5856 5859 5863 5866 5870 5873 5875 5877 5879 5881 5882 5884 5884 5885
5762 5767 5771 5775 5778 5781 5783 5786 5789 5793 5796 5797 5798 5798 5799 5802 5805 5808 5809 5813 5818 5823 5826 5829 5833 5836 5839 5845 5848 5852 5855 5859 5863 5867 5870 5873 5875 5877 5879 5880 5882 5882 5883
5749 5754 5759 5764 5768 5772 5775 5778 5782 5785 5790 5792 5792 5793 5795 5798 5801 5803 5807 5807 5814 5819 5822 5825 5828 5831 5836 5841 5843 5847 5851 5855 5859 5863 5866 5870 5873 5875 5877 5878 5880 5881 5882
5735 5742 5747 5752 5757 5762 5766 5770 5773 5778 5782 5788 5788 5789 5790 5792 5796 5799 5801 5805 5809 5814 5817 5821 5824 5828 5832 5836 5839 5843 5846 5851 5855 5859 5863 5866 5869 5872 5875 5877 5878 5879 5880
5723 5729 5734 5738 5744 5751 5756 5761 5764 5768 5774 5779 5782 5785 5786 5788 5790 5793 5797 5798 5802 5806 5812 5816 5819 5823 5827 5831 5835 5838 5842 5847 5851 5855 5859 5862 5866 5869 5872 5874 5877 5878 5879
5707 5715 5722 5726 5731 5738 5744 5750 5754 5760 5765 5770 5775 5778 5781 5784 5784 5787 5791 5791 5796 5801 5805 5809 5811 5816 5821 5825 5829 5834 5838 5843 5848 5851 5855 5859 5862 5866 5868 5872 5874 5875 5876
5691 5699 5707 5714 5717 5724 5731 5739 5743 5749 5755 5761 5765 5770 5775 5778 5780 5779 5783 5780 5788 5794 5798 5802 5804 5808 5809 5816 5823 5828 5833 5838 5843 5847 5851 5855 5859 5862 5865 5867 5870 5872 5873
5674 5683 5692 5700 5705 5711 5717 5725 5732 5740 5746 5751 5755 5760 5767 5771 5774 5775 5777 5778 5781 5786 5790 5793 5797 5802 5806 5812 5818 5823 5828 5834 5839 5843 5846 5850 5854 5858 5860 5863 5866 5868 5870
5658 5665 5675 5685 5692 5698 5704 5711 5721 5730 5734 5738 5744 5751 5757 5762 5767 5769 5770 5769 5774 5778 5782 5784 5788 5793 5800 5805 5811 5816 5823 5830 5832 5837 5840 5844 5848 5852 5856 5859 5862 5864 5866
5642 5650 5657 5668 5679 5685 5691 5699 5707 5716 5722 5727 5734 5740 5746 5752 5758 5762 5763 5766 5767 5771 5775 5776 5780 5784 5792 5797 5802 5808 5815 5820 5823 5830 5835 5838 5843 5846 5850 5853 5856 5859 5861
5626 5634 5643 5652 5662 5672 5677 5685 5694 5702 5710 5718 5725 5731 5735 5743 5748 5753 5756 5760 5762 5764 5768 5769 5771 5776 5784 5789 5795 5801 5808 5812 5818 5824 5828 5832 5835 5839 5843 5847 5850 5853 5855
5609 5618 5627 5637 5646 5658 5664 5671 5680 5689 5698 5706 5714 5719 5725 5732 5739 5744 5745 5746 5755 5758 5762 5764 5766 5770 5776 5781 5787 5794 5799 5804 5812 5816 5818 5822 5827 5833 5836 5841 5845 5847 5850